Location: Branche des Alpilles
(43.6087°N, 4.6976°E)
Time: 01:00:57
(UTC+00:00)

Envisat - Pass Details

Date: 03 October 2021
Orbit: 764 x 766 km, 98.2° (Epoch: 17 October)

Event Time Altitude Azimuth Distance (km) Brightness Sun altitude
Rises 03:59:59 0° 24° (NNE) 3,240 6.8 -19.0°
Reaches altitude 10° 04:02:37 10° 36° (NE) 2,308 6.2 -18.5°
Maximum altitude 04:06:57 28° 95° (E) 1,419 5.1 -17.8°
Drops below altitude 10° 04:11:15 10° 153° (SSE) 2,294 5.7 -17.0°
Sets 04:13:51 0° 165° (SSE) 3,215 6.3 -16.6°
